Weather in Ivanivka

Ukraine / Donetsk Region     48°15′32″N   37°26′48″E
В апреле 2022 года жителям России запретили посещать сайт meteo.paraplan.net по решению Генеральной прокуратуры. Аудитория сайта уменьшилась в 10 раз. Владельцы сайта не видят смысла в поддержке погодного сервера в таких условиях. Сайт будет закрыт в октябре.
temp.,
°C
wind,
m/s
gust,
m/s
humid.,
%
clouds,
%
prec.,
mm/h
press.,
hPa
HPBL,
m
4 october, tue
tue400:00+11s4967100 0.0 1012170
03:00+11s4969100 0.0 1012198
06:00+12sse6127741 0.3 1012453
09:00+15s796813 0.4 1013981
12:00+17sw69491 0.1 10131671
15:00+18wsw79404 0.1 10142086
18:00+15w59525 0.0 1016326
21:00+11w485817 0.0 1018227
5 october, wed
wed500:00+9w22720 0.0 102041
03:00+8wsw34740 0.0 102163
06:00+7wsw37740 0.0 1022152
09:00+11wsw46620 0.0 1023473
12:00+15w57480 0.0 10231229
15:00+16w784639 0.0 10231598
18:00+15wnw5845100 0.0 1023336
21:00+11wnw336386 0.0 102437
6 october, thu
thu600:00+10nnw2372100 0.0 102548
03:00+9nw237893 0.0 102549
06:00+8nw238377 0.0 102667
09:00+11w226948 0.0 1026292
12:00+15nw3349100 0.0 10251154
15:00+17wnw344447 0.0 10241600
18:00+14wnw12545 0.0 102511
21:00+13ssw22595 0.0 102612
7 october, fri
fri700:00+12sw336436 0.0 102631
03:00+12sw246265 0.0 102699
06:00+10wsw22725 0.0 102617
09:00+14sw225627 0.0 1026235
12:00+19w33429 0.0 10251093
15:00+20nw233751 0.0 10241439
18:00+17n22495 0.0 102516
21:00+14ne346069 0.0 102664
8 october, sat
sat800:00+13ne346786 0.0 102670
03:00+12ene347212 0.0 102667
06:00+11ene34762 0.0 102663
09:00+15e46582 0.0 1026343
12:00+19ese45420 0.0 10241238
15:00+20ese56383 0.0 10231487
18:00+16ese36484 0.0 1023104
21:00+14e36535 0.0 102394